Flag for Luxembourg Weather past 2 weeks in Luxembourg, Luxembourg

Now
48 °F

Partly sunny.


Feels Like: 43 °F
Forecast: 41 / 51 °F
Wind: 13 mph from Northwest

Location: Luxembourg Airport

Current Time: Oct 22, 2014 at 2:34:37 PM

Latest Report: Oct 22, 2014 at 1:50 PM


Visibility: N/A

Pressure: 30.12 "Hg

Humidity: 66%

Dew point: 37 °F

Location of LuxembourgLocation

Historic Weather in Luxembourg — Graph

°F

Luxembourg temperature yesterday

Maximum temperature yesterday: 54 °F (at 12:20 PM)
Minimum temperature yesterday: 43 °F (at 9:50 PM)
Average temperature yesterday: 49 °F

Past Weeks' High & Low Weather Summary

 TemperatureHumidityPressure
High70 °F (Oct 19, 2:20 PM)100% (Oct 7, 4:50 PM)30.15 "Hg (Oct 7, 4:50 PM)
Low41 °F (Oct 22, 3:20 AM)59% (Oct 15, 1:20 PM)29.62 "Hg (Oct 8, 11:20 PM)
Average55 °F91%29.89 "Hg
* Reported Oct 7 1:20 PM — Oct 22 1:20 PM, Luxembourg, Weather by CustomWeather, © 2014

Note: Actual official high and low records may vary slightly from our data, if they occured in-between our weather recording intervals... More about our weather records

Advertising

Luxembourg weather history for previous 24 hours

 ConditionsComfort  
Time TempWeatherWind HumidityBarometerVisibility
1:20 PM
Oct 22
48 °FPartly sunny.16 mph66%30.12 "HgN/A
12:50 PM46 °FPartly sunny.14 mph71%30.12 "HgN/A
12:20 PM46 °FPartly sunny.12 mph71%30.12 "HgN/A
11:50 AM46 °FPartly sunny.16 mph71%30.12 "HgN/A
11:20 AM46 °FScattered clouds.14 mph71%30.12 "HgN/A
10:50 AM45 °FPartly sunny.14 mph76%30.12 "HgN/A
10:20 AM45 °FPartly sunny.16 mph76%30.09 "HgN/A
9:50 AM43 °FPartly sunny.10 mph81%30.09 "HgN/A
9:20 AM43 °FPartly sunny.14 mph76%30.09 "HgN/A
8:50 AM43 °FPassing clouds.16 mph76%30.07 "HgN/A
8:20 AM41 °FPassing clouds.14 mph81%30.07 "HgN/A
7:50 AM41 °FPassing clouds.16 mph81%30.04 "HgN/A
7:20 AM43 °FPartly cloudy.15 mph76%30.04 "HgN/A
6:50 AM43 °FPartly cloudy.16 mph76%30.04 "HgN/A
6:20 AM43 °FPassing clouds.13 mph76%30.04 "HgN/A
5:50 AM43 °FPassing clouds.15 mph81%30.01 "HgN/A
5:20 AM43 °FPassing clouds.14 mph81%30.01 "HgN/A
4:50 AM41 °FPassing clouds.12 mph87%30.01 "HgN/A
4:20 AM41 °FQuite cool.12 mph87%30.01 "HgN/A
3:50 AM41 °FQuite cool.13 mph87%30.01 "HgN/A
3:20 AM41 °FQuite cool.13 mph81%30.01 "HgN/A
2:50 AM43 °FQuite cool.14 mph81%30.01 "HgN/A
2:20 AM43 °FQuite cool.10 mph81%29.98 "HgN/A
1:50 AM43 °FPartly cloudy.15 mph81%29.98 "HgN/A
1:20 AM43 °FPassing clouds.16 mph81%29.98 "HgN/A
12:50 AM43 °FPassing clouds.14 mph87%29.95 "HgN/A
12:20 AM43 °FPassing clouds.15 mph87%29.95 "HgN/A
11:50 PM
Oct 21
43 °FPassing clouds.16 mph87%29.92 "HgN/A
11:20 PM43 °FPassing clouds.13 mph87%29.92 "HgN/A
10:50 PM45 °FPassing clouds.14 mph81%29.89 "HgN/A
10:20 PM45 °FPassing clouds.14 mph81%29.89 "HgN/A
9:50 PM43 °FPassing clouds.16 mph87%29.86 "HgN/A
9:20 PM45 °FPassing clouds.17 mph81%29.83 "HgN/A
8:50 PM45 °FPassing clouds.10 mph81%29.83 "HgN/A
8:20 PM45 °FPassing clouds.12 mph76%29.80 "HgN/A
7:50 PM46 °FPassing clouds.18 mph76%29.80 "HgN/A
7:20 PM46 °FBroken clouds.20 mph76%29.77 "HgN/A
6:50 PM46 °FBroken clouds.18 mph76%29.74 "HgN/A
6:20 PM50 °FScattered clouds.16 mph82%29.71 "HgN/A
5:50 PM50 °FPartly sunny.16 mph82%29.68 "HgN/A
5:20 PM50 °FPartly sunny.16 mph82%29.65 "HgN/A
4:50 PM52 °FSprinkles. Broken clouds.28 mph88%29.65 "HgN/A
4:20 PM52 °FLots of rain. Fog.26 mph94%29.62 "Hg2 mi
3:50 PM54 °FSprinkles. Partly sunny.18 mph94%29.65 "HgN/A
3:20 PM54 °FPartly sunny.15 mph94%29.68 "HgN/A
2:50 PM54 °FPartly sunny.14 mph94%29.71 "HgN/A
2:20 PM52 °FLight rain. Fog.15 mph100%29.71 "Hg2 mi
Weather by CustomWeather, © 2014

See weather overviewHow to use our weather pages